This demonstration page uses our WeatherBlox Daily Observations layout. Learn more.

Left ArrowRight Arrow

Hourly Observations for September 12, 2022

Temp ( °F °C ) Dew Point ( °F °C ) Humidity (%) Winds ( mph kmh ) Pressure ( in mb ) Visibility ( mi km ) Precip ( " mm )
12:53 am 00:53 Cloudy 66 18.9 65 18.3 96 96 Calm 29.92 1013 10 16 0.01 0.13
1:53 am 01:53 Mostly Clear 65 18.3 63 17.2 93 93 VRB 3 6 29.91 1013 10 16 0.00 0.00
2:37 am 02:37 Cloudy 65 18.3 63 17.2 93 93 Calm 29.91 1013 10 16 0.00 0.00
2:53 am 02:53 Cloudy 64 17.8 63 17.2 96 96 VRB 3 6 29.90 1013 10 16 0.00 0.00
3:06 am 03:06 Cloudy 64 17.8 63 17.2 96 96 VRB 3 6 29.90 1013 10 16 0.00 0.00
3:53 am 03:53 Cloudy 64 17.8 62 16.7 93 93 Calm 29.89 1012 10 16 0.00 0.00
4:14 am 04:14 Cloudy 64 17.8 62 16.7 93 93 Calm 29.90 1013 10 16 0.00 0.00
4:46 am 04:46 Cloudy 63 17.2 59 15 87 87 W 7 11 29.91 1013 10 16 0.00 0.00
4:53 am 04:53 Cloudy 63 17.2 59 15 87 87 W 6 9 29.91 1013 10 16 0.00 0.00
5:35 am 05:35 Cloudy 61 16.1 58 14.4 90 90 VRB 5 7 29.92 1013 10 16 0.00 0.00
5:53 am 05:53 Cloudy 61 16.1 57 13.9 87 87 Calm 29.91 1013 10 16 0.00 0.00
6:53 am 06:53 Cloudy 61 16.1 58 14.4 90 90 Calm 29.92 1013 10 16 0.00 0.00
7:53 am 07:53 Cloudy 61 16.1 57 13.9 87 87 Calm 29.93 1014 10 16 0.00 0.00
8:10 am 08:10 Cloudy 61 16.1 57 13.9 87 87 W 5 7 29.94 1014 10 16 0.00 0.00
8:53 am 08:53 Cloudy 62 16.7 57 13.9 84 84 VRB 3 6 29.95 1014 10 16 0.00 0.00
9:22 am 09:22 Mostly Cloudy 62 16.7 56 13.3 80 80 W 8 13 29.95 1014 10 16 0.00 0.00
9:53 am 09:53 Partly Cloudy 64 17.8 56 13.3 75 75 VRB 5 7 29.94 1014 10 16 0.00 0.00
10:53 am 10:53 Partly Cloudy 66 18.9 54 12.2 65 65 VRB 7 11 29.96 1015 10 16 0.00 0.00
11:53 am 11:53 Partly Cloudy 67 19.4 52 11.1 59 59 W 8 13 29.94 1014 10 16 0.00 0.00
12:53 pm 12:53 Sunny 69 20.6 50 10 51 51 W 5 7 29.93 1014 10 16 0.00 0.00
1:53 pm 13:53 Mostly Sunny 70 21.1 51 10.6 51 51 W 6 9 29.92 1013 10 16 0.00 0.00
2:53 pm 14:53 Partly Cloudy 72 22.2 52 11.1 49 49 VRB 6 9 29.89 1012 10 16 0.00 0.00
3:53 pm 15:53 Sunny 72 22.2 51 10.6 48 48 VRB 3 6 29.87 1011 10 16 0.00 0.00
4:53 pm 16:53 Cloudy 70 21.1 51 10.6 51 51 VRB 6 9 29.85 1011 10 16 0.00 0.00
5:53 pm 17:53 Cloudy 68 20 52 11.1 57 57 VRB 3 6 29.85 1011 10 16 0.00 0.00
6:53 pm 18:53 Cloudy 67 19.4 51 10.6 57 57 VRB 3 6 29.84 1011 10 16 0.00 0.00
7:53 pm 19:53 Cloudy with Light Rain 63 17.2 55 12.8 75 75 VRB 5 7 29.86 1011 5 8 0.01 0.25
8:53 pm 20:53 Cloudy 61 16.1 58 14.4 90 90 Calm 29.85 1011 10 16 0.01 0.13
9:53 pm 21:53 Cloudy 62 16.7 57 13.9 84 84 Calm 29.86 1011 10 16 0.00 0.00
10:53 pm 22:53 Cloudy 61 16.1 55 12.8 81 81 Calm 29.85 1011 10 16 0.00 0.00
11:53 pm 23:53 Cloudy 62 16.7 54 12.2 75 75 VRB 3 6 29.83 1010 10 16 0.00 0.00

Powered by AerisWeather